Los Angeles, CA

10:47 AM PDT on September 19, 2017 (GMT -0700)
Los Angeles International

Weather History for KLAX - February, 2014

Change the Weather History Date:

Sunday, February 2, 2014

  Actual Average Record
Temperature  
Mean Temperature 54 °F 57 °F  
Max Temperature 62 °F 65 °F 88 °F (1995)
Min Temperature 46 °F 49 °F 39 °F (1956)
Degree Days  
Heating Degree Days 11 8  
Month to date heating degree days 15 16  
Since 1 July heating degree days 429 720  
Cooling Degree Days 0 0  
Month to date cooling degree days 0 0  
Year to date cooling degree days 16 4  
Growing Degree Days 4 (Base 50)    
Moisture  
Dew Point 35 °F    
Average Humidity 50    
Maximum Humidity 74    
Minimum Humidity 26    
Precipitation  
Precipitation 0.09 in 0.10 in 0.82 in (1988)
Month to date precipitation 0.09 0.20  
Year to date precipitation 0.09 2.91  
Since 1 July precipitation 1.13  
Sea Level Pressure  
Sea Level Pressure 30.03 in    
Wind  
Wind Speed 7 mph (ESE)    
Max Wind Speed 17 mph    
Max Gust Speed 23 mph    
Visibility 10 miles    
Events Rain    
T = Trace of Precipitation, MM = Missing Value Source: NWS Daily Summary

Daily Weather History Graph

Daily Weather History Graph

Search for Another Location

Airport or City:

Trip Planner

Search our weather history database for the weather conditions in past years. The results will help you decide how hot, cold, wet, or windy it might be!

Date:

Astronomy

Feb. 02, 2014 Rise Set
Actual Time 6:49 AM PST 5:25 PM PST
Civil Twilight 6:23 AM PST 5:51 PM PST
Nautical Twilight 5:53 AM PST 6:21 PM PST
Astronomical Twilight 5:24 AM PST 6:50 PM PST
Moon 8:30 AM PST (2/2) 9:01 PM PST (2/2)
Length of Visible Light 11h 28m
Length of Day
10h 35m
Waxing Crescent, 12% of the Moon is Illuminated
Feb 2
Waxing Crescent
Feb 6
First Quarter
Feb 14
Full
Feb 22
Last Quarter
Mar 1
New

Hourly Weather History & Observations

Time (PST) Temp. Dew Point Humidity Pressure Visibility Wind Dir Wind Speed Gust Speed Precip Events Conditions
12:53 AM 53.1 °F 19.9 °F 27% 30.06 in 10.0 mi Calm Calm - N/A   Clear
1:53 AM 50.0 °F 21.9 °F 33% 30.07 in 10.0 mi Calm Calm - N/A   Clear
2:53 AM 48.9 °F 21.9 °F 35% 30.07 in 10.0 mi NNE 3.5 mph - N/A   Clear
3:53 AM 48.0 °F 23.0 °F 37% 30.06 in 10.0 mi East 3.5 mph - N/A   Mostly Cloudy
4:53 AM 48.0 °F 19.9 °F 33% 30.06 in 10.0 mi Calm Calm - N/A   Mostly Cloudy
5:53 AM 48.0 °F 19.0 °F 32% 30.06 in 10.0 mi East 4.6 mph - N/A   Mostly Cloudy
6:53 AM 48.0 °F 19.9 °F 33% 30.08 in 10.0 mi East 5.8 mph - N/A   Mostly Cloudy
7:53 AM 52.0 °F 19.0 °F 27% 30.08 in 10.0 mi East 6.9 mph - N/A   Mostly Cloudy
8:53 AM 55.9 °F 25.0 °F 30% 30.09 in 10.0 mi ESE 9.2 mph - N/A   Mostly Cloudy
9:53 AM 57.9 °F 33.1 °F 39% 30.09 in 10.0 mi ESE 10.4 mph - N/A   Mostly Cloudy
10:53 AM 59.0 °F 36.0 °F 42% 30.07 in 10.0 mi ESE 11.5 mph - N/A   Mostly Cloudy
11:53 AM 61.0 °F 46.0 °F 58% 30.05 in 10.0 mi SE 11.5 mph 18.4 mph N/A   Scattered Clouds
12:53 PM 61.0 °F 44.1 °F 54% 30.01 in 10.0 mi SSW 10.4 mph - N/A   Mostly Cloudy
1:53 PM 61.0 °F 46.0 °F 58% 29.99 in 10.0 mi SSW 13.8 mph - N/A   Mostly Cloudy
2:53 PM 59.0 °F 45.0 °F 60% 30.00 in 10.0 mi West 15.0 mph - N/A   Scattered Clouds
3:53 PM 57.9 °F 43.0 °F 58% 30.00 in 10.0 mi West 6.9 mph - N/A   Mostly Cloudy
4:53 PM 57.0 °F 44.1 °F 62% 30.00 in 10.0 mi West 9.2 mph - N/A   Overcast
5:53 PM 55.0 °F 45.0 °F 69% 30.00 in 7.0 mi West 5.8 mph - 0.02 in Rain Light Rain
6:53 PM 54.0 °F 41.0 °F 62% 30.01 in 10.0 mi West 8.1 mph - 0.01 in   Overcast
7:53 PM 52.0 °F 42.1 °F 69% 30.01 in 7.0 mi Variable 4.6 mph - 0.05 in Rain Rain
8:53 PM 51.1 °F 43.0 °F 74% 29.99 in 10.0 mi East 8.1 mph - 0.01 in   Overcast
9:53 PM 50.0 °F 43.0 °F 77% 29.98 in 10.0 mi East 10.4 mph - N/A   Mostly Cloudy
10:53 PM 51.1 °F 43.0 °F 74% 29.97 in 10.0 mi ENE 11.5 mph - N/A   Mostly Cloudy
11:53 PM 51.1 °F 41.0 °F 68% 29.97 in 10.0 mi East 8.1 mph - N/A   Mostly Cloudy